GW4611 Weather Reports


time (UTC)temp
C
wind
direction
speed
KPH
gust
KPH
rain 1hr
cm
rain 24hr
cm
rain mn
cm
humidity
%
barometer
mb
20260508023258 8 221 1.6 4.8 0.00 0.00 0.00 70 1014.4
20260508022754 8 237 0.0 0.0 0.00 0.00 0.00 68 1014.6
20260508022251 8 233 0.0 0.0 0.00 0.00 0.00 67 1014.5
20260508021748 8 205 4.8 4.8 0.00 0.00 0.00 67 1014.4
20260508021243 8 115 3.2 3.2 0.00 0.00 0.00 64 1014.2
20260508020740 8 228 0.0 0.0 0.00 0.00 0.00 69 1014.5
20260508020238 8 236 0.0 0.0 0.00 0.00 0.00 67 1014.4
20260508015735 8 226 3.2 4.8 0.00 0.00 0.00 68 1014.1
20260508015232 8 225 0.0 1.6 0.00 0.00 0.00 64 1014.0
20260508014729 9 313 0.0 3.2 0.00 0.00 0.00 64 1013.9
20260508014226 9 206 1.6 6.4 0.00 0.00 0.00 64 1014.0
20260508013721 9 209 0.0 0.0 0.00 0.00 0.00 63 1013.9
20260508013218 10 233 0.0 0.0 0.00 0.00 0.00 64 1013.7
20260508012716 10 239 0.0 0.0 0.00 0.00 0.00 61 1013.8
20260508012212 10 222 1.6 1.6 0.00 0.00 0.00 58 1013.6
20260508011711 11 222 0.0 1.6 0.00 0.00 0.00 56 1013.2
20260508011208 11 230 0.0 0.0 0.00 0.00 0.00 55 1013.3
20260508010704 12 320 0.0 0.0 0.00 0.00 0.00 51 1013.3
20260508010202 12 325 0.0 0.0 0.00 0.00 0.00 47 1013.2
20260508005659 13 326 0.0 1.6 0.00 0.00 0.00 45 1013.2
20260508005156 13 9 0.0 1.6 0.00 0.00 0.00 44 1013.1
20260508004651 13 8 3.2 6.4 0.00 0.00 0.00 43 1013.3
20260508004148 13 16 3.2 4.8 0.00 0.00 0.00 43 1013.0
20260508003645 13 281 4.8 6.4 0.00 0.00 0.00 45 1013.0
20260508003142 13 353 0.0 3.2 0.00 0.00 0.00 47 1012.8
20260508002638 13 314 0.0 0.0 0.00 0.00 0.00 45 1012.8
20260508002137 13 355 0.0 0.0 0.00 0.00 0.00 44 1012.7
20260508001631 14 318 0.0 0.0 0.00 0.00 0.00 44 1012.7
20260508001128 14 312 4.8 4.8 0.00 0.00 0.00 43 1012.6
20260508000623 14 296 1.6 4.8 0.00 0.00 0.00 43 1012.8
20260508000121 15 342 4.8 6.4 0.00 0.00 0.00 42 1012.3
20260507235618 15 281 3.2 9.7 0.00 0.00 0.00 40 1012.2
20260507235115 15 288 8.0 12.9 0.00 0.00 0.00 40 1012.4
20260507234611 15 255 3.2 12.9 0.00 0.00 0.00 41 1012.4
20260507234108 15 311 3.2 17.7 0.00 0.00 0.00 40 1012.0
20260507233605 15 287 3.2 6.4 0.00 0.00 0.00 40 1012.2
20260507233104 15 310 1.6 11.3 0.00 0.00 0.00 42 1011.8
20260507232600 16 282 8.0 12.9 0.00 0.00 0.00 39 1012.1
20260507232057 16 297 4.8 11.3 0.00 0.00 0.00 38 1012.0
20260507231553 16 41 1.6 9.7 0.00 0.00 0.00 38 1011.9
20260507231051 16 242 0.0 6.4 0.00 0.00 0.00 37 1011.6
20260507230547 16 268 8.0 11.3 0.00 0.00 0.00 36 1011.7
20260507230044 17 303 3.2 12.9 0.00 0.00 0.00 36 1011.5
20260507225538 17 314 4.8 12.9 0.00 0.00 0.00 37 1011.6
20260507225035 18 282 3.2 11.3 0.00 0.00 0.00 35 1011.7
20260507224531 17 256 8.0 16.1 0.00 0.00 0.00 35 1011.4
20260507224028 17 287 6.4 16.1 0.00 0.00 0.00 36 1011.6
20260507223524 17 38 1.6 12.9 0.00 0.00 0.00 36 1011.3
20260507223021 17 267 4.8 11.3 0.00 0.00 0.00 37 1011.2
20260507222518 17 320 3.2 6.4 0.00 0.00 0.00 39 1011.4
20260507222014 17 334 4.8 11.3 0.00 0.00 0.00 39 1011.2
20260507221511 17 274 4.8 9.7 0.00 0.00 0.00 37 1010.9
20260507221008 18 193 1.6 6.4 0.00 0.00 0.00 35 1011.1
20260507220505 18 270 9.7 14.5 0.00 0.00 0.00 33 1011.2
20260507220002 18 136 1.6 6.4 0.00 0.00 0.00 35 1011.0
20260507215458 18 227 6.4 11.3 0.00 0.00 0.00 34 1011.1
20260507214956 18 315 9.7 16.1 0.00 0.00 0.00 35 1010.7
20260507214453 19 206 12.9 24.1 0.00 0.00 0.00 34 1010.7
20260507213949 19 305 4.8 11.3 0.00 0.00 0.00 38 1010.6
20260507213445 19 197 12.9 16.1 0.00 0.00 0.00 34 1010.1
20260507212943 18 33 3.2 14.5 0.00 0.00 0.00 37 1010.4
20260507212438 18 21 9.7 14.5 0.00 0.00 0.00 37 1010.5
20260507211936 19 299 9.7 12.9 0.00 0.00 0.00 36 1010.6
20260507211432 19 270 3.2 11.3 0.00 0.00 0.00 36 1010.4
20260507210929 19 209 4.8 11.3 0.00 0.00 0.00 36 1010.4
20260507210426 19 10 6.4 9.7 0.00 0.00 0.00 36 1010.0
20260507205923 20 355 8.0 16.1 0.00 0.00 0.00 35 1010.2
20260507205420 19 325 4.8 9.7 0.00 0.00 0.00 37 1010.1
20260507204916 19 335 3.2 6.4 0.00 0.00 0.00 37 1010.2
20260507204412 20 272 4.8 16.1 0.00 0.00 0.00 36 1010.4
20260507203910 20 319 12.9 24.1 0.00 0.00 0.00 35 1010.4
20260507203408 20 5 1.6 11.3 0.00 0.00 0.00 34 1010.2
20260507202904 20 324 4.8 12.9 0.00 0.00 0.00 35 1010.4
20260507202400 21 325 4.8 11.3 0.00 0.00 0.00 35 1010.5
20260507201856 21 38 1.6 16.1 0.00 0.00 0.00 35 1010.4
20260507201351 20 335 3.2 11.3 0.00 0.00 0.00 35 1010.3
20260507200848 20 25 1.6 11.3 0.00 0.00 0.00 37 1010.5
20260507200344 20 341 8.0 17.7 0.00 0.00 0.00 36 1010.6
20260507195840 20 357 14.5 20.9 0.00 0.00 0.00 36 1010.5
20260507195338 20 267 11.3 14.5 0.00 0.00 0.00 35 1010.5
20260507194835 20 234 8.0 11.3 0.00 0.00 0.00 35 1010.6
20260507194331 20 271 3.2 11.3 0.00 0.00 0.00 35 1010.5
20260507193828 20 21 6.4 20.9 0.00 0.00 0.00 37 1010.4
20260507193325 20 336 6.4 9.7 0.00 0.00 0.00 38 1010.6
20260507192820 20 202 1.6 6.4 0.00 0.00 0.00 35 1010.5
20260507192318 20 171 8.0 20.9 0.00 0.00 0.00 35 1010.5
20260507191814 20 270 3.2 22.5 0.00 0.00 0.00 36 1010.5
20260507191310 20 227 14.5 20.9 0.00 0.00 0.00 35 1010.5
20260507190807 20 319 9.7 11.3 0.00 0.00 0.00 36 1010.7
20260507190306 20 17 3.2 11.3 0.00 0.00 0.00 34 1010.7
20260507185804 20 261 9.7 12.9 0.00 0.00 0.00 38 1011.0
20260507185300 20 253 6.4 14.5 0.00 0.00 0.00 39 1010.9
20260507184758 20 29 6.4 9.7 0.00 0.00 0.00 37 1010.7
20260507184256 19 3 6.4 14.5 0.00 0.00 0.00 39 1011.0
20260507183752 20 343 6.4 12.9 0.00 0.00 0.00 38 1010.7
20260507183249 19 155 12.9 20.9 0.00 0.00 0.00 41 1010.7
20260507182747 19 349 4.8 9.7 0.00 0.00 0.00 46 1010.7
20260507182242 20 277 3.2 11.3 0.00 0.00 0.00 39 1011.1
20260507181739 20 291 4.8 6.4 0.00 0.00 0.00 46 1010.9
20260507181235 19 324 0.0 6.4 0.00 0.00 0.00 43 1010.7
20260507180732 19 20 8.0 11.3 0.00 0.00 0.00 40 1011.1
20260507180229 18 14 3.2 9.7 0.00 0.00 0.00 42 1011.1
20260507175724 18 16 6.4 14.5 0.00 0.00 0.00 46 1011.2
20260507175221 18 197 11.3 16.1 0.00 0.00 0.00 45 1011.3
20260507174719 18 161 6.4 11.3 0.00 0.00 0.00 43 1011.4
20260507174217 18 223 6.4 12.9 0.00 0.00 0.00 44 1011.3
20260507173715 18 317 3.2 12.9 0.00 0.00 0.00 49 1011.4
20260507173211 18 345 9.7 16.1 0.00 0.00 0.00 45 1011.6
20260507172708 18 32 8.0 20.9 0.00 0.00 0.00 45 1011.5
20260507172204 18 323 3.2 12.9 0.00 0.00 0.00 45 1011.6
20260507171658 18 196 3.2 9.7 0.00 0.00 0.00 45 1012.0
20260507171155 18 114 8.0 9.7 0.00 0.00 0.00 40 1011.9
20260507170652 18 207 3.2 6.4 0.00 0.00 0.00 44 1011.9
20260507170150 18 197 14.5 16.1 0.00 0.00 0.00 44 1012.0
20260507165645 18 294 11.3 16.1 0.00 0.00 0.00 42 1012.2
20260507165142 17 341 4.8 6.4 0.00 0.00 0.00 50 1012.4
20260507164637 18 134 0.0 6.4 0.00 0.00 0.00 44 1012.5
20260507164135 18 70 3.2 16.1 0.00 0.00 0.00 44 1012.3
20260507163632 18 288 6.4 14.5 0.00 0.00 0.00 45 1012.5
20260507163130 18 23 3.2 6.4 0.00 0.00 0.00 49 1012.5
20260507162626 17 144 6.4 12.9 0.00 0.00 0.00 48 1012.7
20260507162122 17 174 9.7 16.1 0.00 0.00 0.00 46 1012.7
20260507161618 17 159 4.8 11.3 0.00 0.00 0.00 47 1012.9
20260507161115 17 30 4.8 22.5 0.00 0.00 0.00 48 1012.8
20260507160611 17 322 3.2 11.3 0.00 0.00 0.00 50 1012.8
20260507160108 16 291 1.6 4.8 0.00 0.00 0.00 52 1012.8
20260507155603 16 355 12.9 20.9 0.00 0.00 0.00 52 1012.9
20260507155100 16 28 11.3 12.9 0.00 0.00 0.00 52 1013.2
20260507154557 16 11 9.7 12.9 0.00 0.00 0.00 55 1013.0
20260507154054 16 26 11.3 12.9 0.00 0.00 0.00 55 1013.1
20260507153551 16 355 0.0 6.4 0.00 0.00 0.00 57 1013.3
20260507153047 15 318 12.9 14.5 0.00 0.00 0.00 58 1013.3
20260507152543 15 2 8.0 12.9 0.00 0.00 0.00 57 1013.5
20260507152040 15 26 4.8 9.7 0.00 0.00 0.00 58 1013.6
20260507151536 14 38 8.0 9.7 0.00 0.00 0.00 58 1013.7
20260507151033 15 23 8.0 12.9 0.00 0.00 0.00 55 1013.8
20260507150530 15 28 9.7 11.3 0.00 0.00 0.00 60 1013.6
20260507150027 14 62 6.4 11.3 0.00 0.00 0.00 56 1014.0
20260507145522 14 230 0.0 0.0 0.00 0.00 0.00 57 1014.0
20260507145020 15 121 1.6 9.7 0.00 0.00 0.00 56 1014.1
20260507144516 15 343 4.8 4.8 0.00 0.00 0.00 57 1014.2
20260507144014 14 334 3.2 4.8 0.00 0.00 0.00 59 1014.2
20260507143511 14 340 9.7 12.9 0.00 0.00 0.00 63 1014.5
20260507143008 13 141 3.2 6.4 0.00 0.00 0.00 62 1014.6
20260507142503 13 273 0.0 0.0 0.00 0.00 0.00 63 1014.7
20260507142000 13 207 3.2 4.8 0.00 0.00 0.00 63 1014.7
20260507141456 13 327 3.2 6.4 0.00 0.00 0.00 63 1014.8
20260507140953 13 317 3.2 12.9 0.00 0.00 0.00 63 1014.7
20260507140450 13 290 1.6 6.4 0.00 0.00 0.00 65 1014.8
20260507135947 13 7 6.4 6.4 0.00 0.00 0.00 64 1014.9
20260507135444 13 335 0.0 3.2 0.00 0.00 0.00 63 1015.0
20260507134941 12 271 0.0 3.2 0.00 0.00 0.00 64 1015.0
20260507134438 12 16 4.8 9.7 0.00 0.00 0.00 67 1015.2
20260507133934 12 318 4.8 4.8 0.00 0.00 0.00 69 1015.2
20260507133430 11 20 3.2 4.8 0.00 0.00 0.00 67 1015.3
20260507132929 11 5 3.2 9.7 0.00 0.00 0.00 69 1015.3
20260507132424 11 318 3.2 6.4 0.00 0.00 0.00 69 1015.6
20260507131921 11 327 1.6 6.4 0.00 0.00 0.00 70 1015.5
20260507131418 11 332 3.2 6.4 0.00 0.00 0.00 71 1015.4
20260507130915 11 324 1.6 6.4 0.00 0.00 0.00 72 1015.4
20260507130412 11 3 3.2 6.4 0.00 0.00 0.00 72 1015.5
20260507125911 11 0 3.2 4.8 0.00 0.00 0.00 72 1015.6
20260507125408 11 15 1.6 6.4 0.00 0.00 0.00 72 1015.4
20260507124906 11 324 3.2 9.7 0.00 0.00 0.00 73 1015.6
20260507124401 11 342 3.2 3.2 0.00 0.00 0.00 76 1015.4
20260507123900 11 358 0.0 3.2 0.00 0.00 0.00 75 1015.4
20260507123357 11 4 1.6 4.8 0.00 0.00 0.00 75 1015.7
20260507122853 11 0 3.2 4.8 0.00 0.00 0.00 75 1015.4
20260507122349 11 0 6.4 6.4 0.00 0.00 0.00 76 1015.3
20260507121845 11 343 1.6 3.2 0.00 0.00 0.00 77 1015.1
20260507121340 11 12 6.4 9.7 0.00 0.00 0.00 77 1015.2
20260507120837 10 26 1.6 6.4 0.00 0.00 0.00 79 1015.1
20260507120334 10 351 1.6 3.2 0.00 0.00 0.00 82 1015.1
20260507115830 10 352 1.6 1.6 0.00 0.00 0.00 84 1015.2
20260507115326 10 336 1.6 1.6 0.00 0.00 0.00 84 1015.1
20260507114822 10 321 0.0 3.2 0.00 0.00 0.00 84 1015.3
20260507114319 10 320 1.6 3.2 0.00 0.00 0.00 84 1015.1
20260507113817 10 327 1.6 3.2 0.00 0.00 0.00 84 1015.1
20260507113313 10 322 3.2 3.2 0.00 0.00 0.00 84 1015.0
20260507112811 10 332 1.6 6.4 0.00 0.00 0.00 84 1014.7
20260507112308 10 40 4.8 9.7 0.00 0.00 0.00 84 1014.8
20260507111806 10 329 3.2 6.4 0.00 0.00 0.00 84 1014.7
20260507111302 10 337 3.2 4.8 0.00 0.00 0.00 85 1014.9
20260507110758 10 308 4.8 4.8 0.00 0.00 0.00 85 1014.6
20260507110255 10 306 4.8 11.3 0.00 0.00 0.00 84 1014.6
20260507105752 10 341 1.6 6.4 0.00 0.00 0.00 85 1014.4
20260507105247 10 26 1.6 3.2 0.00 0.00 0.00 86 1014.4
20260507104745 10 347 0.0 4.8 0.00 0.00 0.00 86 1014.5
20260507104242 10 11 0.0 0.0 0.00 0.00 0.00 87 1014.5
20260507103737 10 258 0.0 0.0 0.00 0.00 0.00 87 1014.2
20260507103234 10 240 0.0 0.0 0.00 0.00 0.00 87 1014.4
20260507102730 10 239 0.0 0.0 0.00 0.00 0.00 87 1014.4
20260507102227 10 238 0.0 0.0 0.00 0.00 0.00 87 1014.1
20260507101723 10 238 0.0 0.0 0.00 0.00 0.00 87 1014.4
20260507101218 10 238 0.0 0.0 0.00 0.00 0.00 87 1014.0
20260507100716 10 238 0.0 0.0 0.00 0.00 0.00 88 1014.0
20260507100214 10 238 0.0 0.0 0.00 0.00 0.00 87 1013.9
20260507095712 10 239 0.0 0.0 0.00 0.00 0.00 88 1014.0
20260507095208 10 246 0.0 0.0 0.00 0.00 0.00 86 1013.8
20260507094705 10 246 0.0 0.0 0.00 0.00 0.00 85 1013.6
20260507094202 10 238 0.0 0.0 0.00 0.00 0.00 87 1013.6
20260507093659 10 238 0.0 0.0 0.00 0.00 0.00 86 1013.8
20260507093158 10 238 0.0 0.0 0.00 0.00 0.00 85 1013.7
20260507092654 11 238 0.0 0.0 0.00 0.00 0.00 85 1013.9
20260507092151 11 238 0.0 0.0 0.00 0.00 0.00 85 1013.9
20260507091647 11 238 0.0 0.0 0.00 0.00 0.00 84 1013.9
20260507091144 11 237 1.6 1.6 0.00 0.00 0.00 85 1014.1
20260507090639 11 346 0.0 0.0 0.00 0.00 0.00 83 1013.9
20260507090137 11 347 0.0 0.0 0.00 0.00 0.00 83 1013.9
20260507085633 11 21 0.0 0.0 0.00 0.00 0.00 82 1013.8
20260507085130 11 22 0.0 0.0 0.00 0.00 0.00 82 1013.6
20260507084627 11 22 0.0 0.0 0.00 0.00 0.00 83 1013.7
20260507084124 11 359 0.0 0.0 0.00 0.00 0.00 83 1013.6
20260507083620 11 18 0.0 0.0 0.00 0.00 0.00 84 1013.9
20260507083117 11 9 0.0 1.6 0.00 0.00 0.00 83 1013.9
20260507082613 11 328 1.6 1.6 0.00 0.00 0.00 82 1014.0
20260507082104 11 335 1.6 1.6 0.00 0.00 0.00 80 1014.0
20260507081601 11 310 1.6 3.2 0.00 0.00 0.00 80 1013.9
20260507081058 11 184 0.0 3.2 0.00 0.00 0.00 78 1013.8
20260507080554 11 13 0.0 0.0 0.00 0.00 0.00 80 1013.6
20260507080050 11 117 0.0 0.0 0.00 0.00 0.00 83 1013.6
20260507075545 11 14 0.0 0.0 0.00 0.00 0.00 83 1013.9
20260507075042 11 14 0.0 0.0 0.00 0.00 0.00 83 1014.1
20260507074539 11 15 0.0 3.2 0.00 0.00 0.00 82 1014.1
20260507074037 11 331 3.2 3.2 0.00 0.00 0.00 79 1013.9
20260507073533 11 16 1.6 4.8 0.00 0.00 0.00 78 1013.8
20260507073030 11 66 0.0 3.2 0.00 0.00 0.00 79 1013.7
20260507072527 11 43 1.6 4.8 0.00 0.00 0.00 80 1013.5
20260507072025 11 18 3.2 3.2 0.00 0.00 0.00 79 1013.5
20260507071522 11 2 1.6 1.6 0.00 0.00 0.00 80 1013.5
20260507071019 11 11 1.6 1.6 0.00 0.00 0.00 80 1013.6
20260507070516 11 61 0.0 1.6 0.00 0.00 0.00 81 1013.8
20260507070014 11 111 0.0 4.8 0.00 0.00 0.00 80 1013.7
20260507065508 11 29 0.0 0.0 0.00 0.00 0.00 82 1013.9
20260507065006 11 137 0.0 1.6 0.00 0.00 0.00 82 1013.6
20260507064504 11 323 0.0 0.0 0.00 0.00 0.00 83 1013.5
20260507064002 11 318 0.0 0.0 0.00 0.00 0.00 83 1013.7
20260507063458 11 342 0.0 1.6 0.00 0.00 0.00 84 1013.9
20260507062956 11 10 0.0 1.6 0.00 0.00 0.00 83 1013.7
20260507062452 11 347 0.0 0.0 0.00 0.00 0.00 84 1013.8
20260507061950 11 354 0.0 4.8 0.00 0.00 0.00 84 1013.9
20260507061448 11 346 3.2 4.8 0.00 0.00 0.00 85 1014.0
20260507060946 11 334 0.0 1.6 0.00 0.00 0.00 86 1014.1
20260507060443 11 26 1.6 3.2 0.00 0.00 0.00 86 1014.0
20260507055939 11 277 1.6 4.8 0.00 0.00 0.00 86 1014.2
20260507055434 11 252 0.0 0.0 0.00 0.00 0.00 87 1014.1
20260507054932 11 21 0.0 0.0 0.00 0.00 0.00 87 1014.1
20260507054428 11 324 1.6 3.2 0.00 0.00 0.00 88 1014.4
20260507053925 11 336 0.0 0.0 0.00 0.00 0.00 89 1014.5
20260507053422 11 331 1.6 4.8 0.00 0.00 0.00 89 1014.4
20260507052921 11 329 0.0 1.6 0.00 0.00 0.00 90 1014.4
20260507052418 11 337 3.2 9.7 0.00 0.00 0.00 90 1014.5
20260507051915 11 326 1.6 9.7 0.00 0.00 0.00 90 1014.6
20260507051413 11 317 3.2 6.4 0.00 0.00 0.00 90 1014.0
20260507050910 11 65 0.0 6.4 0.00 0.00 0.00 90 1014.1
20260507050406 11 300 6.4 6.4 0.00 0.00 0.00 90 1014.0
20260507045903 11 26 3.2 12.9 0.00 0.00 0.00 89 1014.0
20260507045359 11 9 1.6 11.3 0.00 0.00 0.00 88 1014.0
20260507044856 11 342 4.8 11.3 0.00 0.00 0.00 87 1014.2
20260507044352 12 17 9.7 12.9 0.00 0.00 0.00 85 1013.9
20260507043848 12 329 11.3 14.5 0.00 0.00 0.00 84 1013.8
20260507043345 12 308 4.8 6.4 0.00 0.00 0.00 84 1013.6
20260507042841 12 38 4.8 11.3 0.00 0.00 0.00 83 1013.4
20260507042337 12 323 11.3 14.5 0.00 0.00 0.00 83 1013.7
20260507041834 13 323 6.4 14.5 0.00 0.00 0.00 82 1013.3
20260507041331 13 47 9.7 12.9 0.00 0.00 0.00 82 1013.8
20260507040828 13 327 6.4 14.5 0.00 0.00 0.00 82 1013.5
20260507040324 13 8 6.4 14.5 0.00 0.00 0.00 82 1013.6
20260507035820 13 308 4.8 6.4 0.00 0.18 0.18 82 1012.9
20260507035315 13 91 6.4 6.4 0.00 0.18 0.18 82 1012.4
20260507034814 13 52 1.6 4.8 0.00 0.18 0.18 82 1012.8
20260507034310 13 15 4.8 6.4 0.00 0.18 0.18 82 1013.4
20260507033808 13 17 3.2 11.3 0.00 0.18 0.18 82 1013.9
20260507033306 13 317 6.4 9.7 0.00 0.18 0.18 82 1013.5
20260507032802 13 314 4.8 4.8 0.00 0.18 0.18 81 1013.2
20260507032258 14 104 0.0 4.8 0.00 0.18 0.18 81 1013.1
20260507031755 14 106 0.0 1.6 0.00 0.18 0.18 82 1013.2
20260507031252 14 354 0.0 6.4 0.00 0.18 0.18 81 1013.6
20260507030749 14 31 1.6 11.3 0.00 0.18 0.18 81 1013.6
20260507030246 14 302 3.2 3.2 0.00 0.18 0.18 81 1013.4
20260507025743 14 255 0.0 1.6 0.00 0.18 0.18 81 1013.1
20260507025240 14 348 8.0 11.3 0.00 0.18 0.18 81 1013.7
20260507024739 14 21 6.4 9.7 0.00 0.18 0.18 81 1013.6
20260507024235 14 332 3.2 9.7 0.00 0.18 0.18 81 1013.6